TimeEST,TemperatureF,Dew PointF,Humidity,Sea Level PressureIn,VisibilityMPH,Wind Direction,Wind SpeedMPH,Gust SpeedMPH,PrecipitationIn,Events,Conditions,WindDirDegrees,DateUTC
12:15 AM,30.2,28.2,92,29.95,10.0,SSW,4.6,-,N/A,,Clear,200,2013-12-16 05:15:00
12:35 AM,30.7,28.2,90,29.95,10.0,Calm,Calm,-,N/A,,Scattered Clouds,0,2013-12-16 05:35:00
12:55 AM,29.3,27.9,94,29.95,10.0,SSE,3.5,-,N/A,,Scattered Clouds,150,2013-12-16 05:55:00
1:15 AM,30.7,29.1,94,29.95,10.0,SSE,3.5,-,N/A,,Mostly Cloudy,150,2013-12-16 06:15:00
1:35 AM,32.0,30.0,92,29.96,10.0,Calm,Calm,-,N/A,,Overcast,0,2013-12-16 06:35:00
1:55 AM,32.0,30.4,94,29.97,10.0,Calm,Calm,-,N/A,,Overcast,0,2013-12-16 06:55:00
2:15 AM,32.0,31.1,96,29.98,10.0,Calm,Calm,-,N/A,,Overcast,0,2013-12-16 07:15:00
2:35 AM,32.0,31.1,96,29.98,10.0,Calm,Calm,-,N/A,,Overcast,0,2013-12-16 07:35:00
2:56 AM,32.0,30.2,93,29.99,10.0,Calm,Calm,-,N/A,,Overcast,0,2013-12-16 07:56:00
3:20 AM,32.0,32.0,100,30.00,10.0,Calm,Calm,-,N/A,,Overcast,0,2013-12-16 08:20:00
3:36 AM,32.0,32.0,100,30.00,10.0,North,3.5,-,N/A,,Overcast,10,2013-12-16 08:36:00
3:56 AM,33.8,32.0,93,30.00,10.0,Calm,Calm,-,N/A,,Overcast,0,2013-12-16 08:56:00
4:16 AM,33.8,32.0,93,30.00,10.0,Calm,Calm,-,N/A,,Overcast,0,2013-12-16 09:16:00
4:37 AM,33.8,30.2,87,30.01,10.0,SE,3.5,-,N/A,,Overcast,140,2013-12-16 09:37:00
4:57 AM,32.0,30.2,93,30.01,10.0,Calm,Calm,-,N/A,,Overcast,0,2013-12-16 09:57:00
5:15 AM,32.0,31.6,99,30.02,10.0,Calm,Calm,-,N/A,,Overcast,0,2013-12-16 10:15:00
5:35 AM,32.0,31.8,99,30.03,10.0,Calm,Calm,-,N/A,,Overcast,0,2013-12-16 10:35:00
5:55 AM,32.4,32.0,99,30.04,10.0,NNW,3.5,-,N/A,,Overcast,340,2013-12-16 10:55:00
6:15 AM,32.9,32.0,96,30.05,10.0,Calm,Calm,-,N/A,,Overcast,0,2013-12-16 11:15:00
6:35 AM,33.1,32.0,96,30.05,10.0,Calm,Calm,-,N/A,,Overcast,0,2013-12-16 11:35:00
6:55 AM,31.8,30.7,96,30.05,10.0,Calm,Calm,-,N/A,,Scattered Clouds,0,2013-12-16 11:55:00
7:15 AM,31.6,30.7,96,30.05,10.0,ENE,4.6,-,N/A,,Clear,60,2013-12-16 12:15:00
7:35 AM,32.7,30.2,90,30.06,10.0,NNE,3.5,-,N/A,,Scattered Clouds,30,2013-12-16 12:35:00
7:55 AM,32.0,31.6,99,30.07,10.0,NNE,3.5,-,N/A,,Overcast,20,2013-12-16 12:55:00
8:15 AM,32.0,31.6,99,30.09,10.0,Calm,Calm,-,N/A,,Overcast,0,2013-12-16 13:15:00
8:35 AM,33.6,31.6,92,30.10,10.0,East,3.5,-,N/A,,Overcast,80,2013-12-16 13:35:00
8:55 AM,34.7,30.9,86,30.10,10.0,NE,4.6,-,N/A,,Overcast,50,2013-12-16 13:55:00
9:15 AM,34.7,31.6,89,30.11,10.0,NE,4.6,-,N/A,,Overcast,40,2013-12-16 14:15:00
9:35 AM,35.1,31.6,87,30.12,10.0,North,5.8,-,N/A,,Overcast,10,2013-12-16 14:35:00
9:55 AM,35.2,32.0,88,30.13,10.0,Calm,Calm,-,N/A,,Overcast,0,2013-12-16 14:55:00
10:15 AM,35.8,31.6,85,30.13,10.0,North,5.8,-,N/A,,Overcast,10,2013-12-16 15:15:00
10:35 AM,36.5,31.8,83,30.13,10.0,ENE,4.6,-,N/A,,Overcast,60,2013-12-16 15:35:00
10:55 AM,37.6,31.8,80,30.13,10.0,NE,5.8,-,N/A,,Mostly Cloudy,40,2013-12-16 15:55:00
11:15 AM,38.8,31.8,76,30.13,10.0,ESE,4.6,-,N/A,,Scattered Clouds,110,2013-12-16 16:15:00
11:35 AM,38.3,31.8,77,30.12,10.0,East,4.6,-,N/A,,Scattered Clouds,100,2013-12-16 16:35:00
11:55 AM,38.5,31.3,75,30.12,10.0,NE,3.5,-,N/A,,Mostly Cloudy,50,2013-12-16 16:55:00
12:15 PM,38.3,31.8,77,30.11,10.0,NNE,5.8,-,N/A,,Mostly Cloudy,20,2013-12-16 17:15:00
12:35 PM,37.8,31.5,78,30.11,10.0,NNE,6.9,-,N/A,,Mostly Cloudy,30,2013-12-16 17:35:00
12:55 PM,38.1,31.6,77,30.11,10.0,North,6.9,-,N/A,,Scattered Clouds,10,2013-12-16 17:55:00
1:15 PM,37.8,31.1,77,30.11,10.0,NNE,6.9,-,N/A,,Clear,20,2013-12-16 18:15:00
1:35 PM,37.8,31.5,78,30.11,10.0,North,6.9,-,N/A,,Mostly Cloudy,10,2013-12-16 18:35:00
1:55 PM,37.8,30.9,76,30.11,10.0,NNE,8.1,-,N/A,,Scattered Clouds,20,2013-12-16 18:55:00
2:15 PM,38.3,31.8,77,30.11,10.0,NNE,4.6,-,N/A,,Scattered Clouds,30,2013-12-16 19:15:00
2:35 PM,38.5,31.3,75,30.11,10.0,NE,8.1,-,N/A,,Mostly Cloudy,40,2013-12-16 19:35:00
2:55 PM,37.9,31.3,77,30.12,10.0,NE,6.9,-,N/A,,Mostly Cloudy,50,2013-12-16 19:55:00
3:15 PM,37.8,31.3,77,30.12,10.0,NE,6.9,-,N/A,,Overcast,40,2013-12-16 20:15:00
3:35 PM,37.6,31.5,79,30.12,10.0,NE,6.9,-,N/A,,Overcast,50,2013-12-16 20:35:00
3:55 PM,37.4,31.1,78,30.13,10.0,NE,5.8,-,N/A,,Overcast,40,2013-12-16 20:55:00
4:15 PM,37.4,31.1,78,30.13,10.0,NE,6.9,-,N/A,,Overcast,50,2013-12-16 21:15:00
4:35 PM,36.0,30.2,80,30.13,10.0,NE,3.5,-,N/A,,Scattered Clouds,50,2013-12-16 21:35:00
4:55 PM,35.2,30.0,81,30.13,10.0,NE,3.5,-,N/A,,Mostly Cloudy,50,2013-12-16 21:55:00
5:15 PM,35.1,30.2,82,30.13,10.0,NE,4.6,-,N/A,,Overcast,40,2013-12-16 22:15:00
5:35 PM,34.7,30.2,84,30.13,10.0,ENE,3.5,-,N/A,,Overcast,60,2013-12-16 22:35:00
5:55 PM,34.7,30.0,83,30.13,10.0,NE,4.6,-,N/A,,Overcast,50,2013-12-16 22:55:00
6:15 PM,33.8,29.8,85,30.15,10.0,NNE,3.5,-,N/A,,Mostly Cloudy,30,2013-12-16 23:15:00
6:35 PM,33.3,29.3,85,30.16,10.0,NE,3.5,-,N/A,,Mostly Cloudy,40,2013-12-16 23:35:00
6:55 PM,32.4,29.3,88,30.16,10.0,Calm,Calm,-,N/A,,Scattered Clouds,0,2013-12-16 23:55:00
7:15 PM,31.1,29.7,94,30.17,10.0,Calm,Calm,-,N/A,,Mostly Cloudy,0,2013-12-17 00:15:00
7:35 PM,32.5,30.2,91,30.17,10.0,NNE,3.5,-,N/A,,Overcast,30,2013-12-17 00:35:00
7:55 PM,32.0,29.7,91,30.17,10.0,NNE,3.5,-,N/A,,Overcast,20,2013-12-17 00:55:00
8:15 PM,31.1,29.1,92,30.17,10.0,NNE,3.5,-,N/A,,Scattered Clouds,30,2013-12-17 01:15:00
8:35 PM,32.0,29.3,90,30.17,10.0,NE,3.5,-,N/A,,Mostly Cloudy,40,2013-12-17 01:35:00
8:55 PM,32.2,29.8,91,30.17,10.0,NE,3.5,-,N/A,,Mostly Cloudy,40,2013-12-17 01:55:00
9:15 PM,32.4,30.0,91,30.17,10.0,NNE,3.5,-,N/A,,Mostly Cloudy,30,2013-12-17 02:15:00
9:35 PM,32.4,30.0,91,30.16,10.0,NE,3.5,-,N/A,,Scattered Clouds,40,2013-12-17 02:35:00
9:55 PM,32.0,30.0,92,30.16,10.0,NNE,3.5,-,N/A,,Clear,30,2013-12-17 02:55:00
10:15 PM,32.2,30.2,92,30.16,10.0,NNE,4.6,-,N/A,,Scattered Clouds,20,2013-12-17 03:15:00
10:35 PM,32.0,30.2,93,30.16,10.0,Calm,Calm,-,N/A,,Scattered Clouds,0,2013-12-17 03:35:00
10:55 PM,32.0,30.7,95,30.16,10.0,Calm,Calm,-,N/A,,Scattered Clouds,0,2013-12-17 03:55:00
11:15 PM,32.0,31.3,97,30.16,10.0,Calm,Calm,-,N/A,,Clear,0,2013-12-17 04:15:00
11:35 PM,32.0,30.6,94,30.16,10.0,Calm,Calm,-,N/A,,Scattered Clouds,0,2013-12-17 04:35:00
11:55 PM,32.0,30.7,95,30.15,10.0,Calm,Calm,-,N/A,,Scattered Clouds,0,2013-12-17 04:55:00